• Em Portugal
  • Lista de países
  • Para 7 dias
  • Temperatura da água
  • Mapas de satélite
  • Mapa do tempo
  • Widgets de tempo
  • user-avatar
    Iniciar Sessão

    Previsão horária em Waplewko

    Hoje, 20 Agosto, Segunda-feira

    Tempo Temperatura Precipitação Vento Pressão Humidade
    00:00 +19°C° 0 mm 2 m/s 757 mmHg 69%
    01:00 +19°C° 0 mm 2 m/s 757 mmHg 68%
    02:00 +19°C° 0 mm 2 m/s 757 mmHg 66%
    03:00 +19°C° 0 mm 3 m/s 756 mmHg 65%
    04:00 +19°C° 0 mm 3 m/s 756 mmHg 63%
    05:00 +20°C° 0 mm 3 m/s 756 mmHg 62%
    06:00 +21°C° 0 mm 4 m/s 756 mmHg 61%
    07:00 +22°C° 0 mm 4 m/s 755 mmHg 60%
    08:00 +25°C° 0 mm 5 m/s 755 mmHg 57%
    09:00 +26°C° 0 mm 5 m/s 755 mmHg 54%
    10:00 +28°C° 0 mm 5 m/s 755 mmHg 51%
    11:00 +28°C° 0 mm 5 m/s 755 mmHg 52%
    12:00 +28°C° 0 mm 6 m/s 755 mmHg 52%
    13:00 +28°C° 0 mm 6 m/s 755 mmHg 53%
    14:00 +27°C° 0,1 mm 6 m/s 755 mmHg 58%
    15:00 +26°C° 0,1 mm 5 m/s 754 mmHg 62%
    16:00 +25°C° 0,1 mm 5 m/s 754 mmHg 67%
    17:00 +23°C° 0,1 mm 5 m/s 755 mmHg 70%
    18:00 +22°C° 0,1 mm 5 m/s 755 mmHg 74%
    19:00 +21°C° 0,1 mm 5 m/s 755 mmHg 78%
    20:00 +20°C° 0 mm 5 m/s 755 mmHg 80%
    21:00 +19°C° 0 mm 5 m/s 755 mmHg 82%
    22:00 +17°C° 0 mm 5 m/s 755 mmHg 84%
    23:00 +17°C° 0 mm 5 m/s 755 mmHg 82%

    Amanhã, 21 Agosto, Terça-feira

    Tempo Temperatura Precipitação Vento Pressão Humidade
    00:00 +16°C° 0 mm 5 m/s 755 mmHg 80%
    01:00 +15°C° 0 mm 5 m/s 756 mmHg 78%
    02:00 +15°C° 0 mm 5 m/s 756 mmHg 78%
    03:00 +14°C° 0 mm 4 m/s 756 mmHg 78%
    04:00 +14°C° 0 mm 4 m/s 756 mmHg 79%
    05:00 +15°C° 0 mm 5 m/s 757 mmHg 75%
    06:00 +16°C° 0 mm 5 m/s 757 mmHg 72%
    07:00 +17°C° 0 mm 5 m/s 758 mmHg 69%
    08:00 +19°C° 0 mm 5 m/s 758 mmHg 65%
    09:00 +20°C° 0 mm 5 m/s 759 mmHg 61%
    10:00 +21°C° 0 mm 5 m/s 759 mmHg 56%
    11:00 +22°C° 0 mm 5 m/s 759 mmHg 54%
    12:00 +22°C° 0 mm 4 m/s 760 mmHg 51%
    13:00 +23°C° 0 mm 4 m/s 760 mmHg 49%
    14:00 +23°C° 0 mm 4 m/s 760 mmHg 50%
    15:00 +22°C° 0 mm 4 m/s 760 mmHg 51%
    16:00 +22°C° 0 mm 4 m/s 760 mmHg 53%
    17:00 +20°C° 0 mm 3 m/s 760 mmHg 61%
    18:00 +19°C° 0 mm 3 m/s 761 mmHg 69%
    19:00 +17°C° 0 mm 2 m/s 761 mmHg 76%
    20:00 +16°C° 0 mm 2 m/s 761 mmHg 80%
    21:00 +15°C° 0 mm 2 m/s 761 mmHg 84%
    22:00 +15°C° 0 mm 1 m/s 762 mmHg 87%
    23:00 +14°C° 0 mm 1 m/s 762 mmHg 88%

    Depois de amanhã, 22 Agosto, Quarta-feira

    Tempo Temperatura Precipitação Vento Pressão Humidade
    00:00 +14°C° 0 mm 1 m/s 762 mmHg 89%
    01:00 +13°C° 0 mm 1 m/s 762 mmHg 90%
    02:00 +13°C° 0 mm 1 m/s 762 mmHg 90%
    03:00 +13°C° 0 mm 2 m/s 762 mmHg 91%
    04:00 +13°C° 0 mm 2 m/s 763 mmHg 91%
    05:00 +14°C° 0 mm 2 m/s 763 mmHg 86%
    06:00 +15°C° 0 mm 2 m/s 763 mmHg 81%
    07:00 +16°C° 0 mm 3 m/s 763 mmHg 76%
    08:00 +18°C° 0 mm 3 m/s 763 mmHg 69%
    09:00 +20°C° 0 mm 3 m/s 763 mmHg 61%
    10:00 +21°C° 0 mm 3 m/s 763 mmHg 54%
    11:00 +22°C° 0 mm 3 m/s 762 mmHg 51%
    12:00 +24°C° 0 mm 3 m/s 762 mmHg 48%
    13:00 +25°C° 0 mm 3 m/s 762 mmHg 46%
    14:00 +25°C° 0 mm 3 m/s 761 mmHg 46%
    15:00 +25°C° 0 mm 3 m/s 761 mmHg 46%
    16:00 +26°C° 0 mm 3 m/s 760 mmHg 46%
    17:00 +24°C° 0 mm 3 m/s 760 mmHg 51%
    18:00 +21°C° 0 mm 3 m/s 760 mmHg 57%
    19:00 +20°C° 0 mm 3 m/s 760 mmHg 62%
    20:00 +19°C° 0 mm 3 m/s 760 mmHg 61%
    21:00 +19°C° 0 mm 4 m/s 760 mmHg 60%
    22:00 +18°C° 0 mm 4 m/s 760 mmHg 59%
    23:00 +18°C° 0 mm 4 m/s 759 mmHg 58%

    23 Agosto, Quinta-feira

    Tempo Temperatura Precipitação Vento Pressão Humidade
    00:00 +17°C° 0 mm 4 m/s 759 mmHg 58%
    01:00 +17°C° 0 mm 4 m/s 759 mmHg 58%
    02:00 +17°C° 0 mm 4 m/s 759 mmHg 60%
    03:00 +15°C° 0 mm 4 m/s 758 mmHg 62%
    04:00 +15°C° 0 mm 4 m/s 758 mmHg 64%
    05:00 +17°C° 0 mm 4 m/s 758 mmHg 66%
    06:00 +18°C° 0 mm 4 m/s 758 mmHg 68%
    07:00 +19°C° 0 mm 5 m/s 758 mmHg 70%
    08:00 +21°C° 0 mm 5 m/s 757 mmHg 66%
    09:00 +22°C° 0 mm 5 m/s 757 mmHg 62%
    10:00 +25°C° 0 mm 4 m/s 757 mmHg 59%
    11:00 +26°C° 0 mm 4 m/s 757 mmHg 56%
    12:00 +27°C° 0 mm 4 m/s 757 mmHg 54%
    13:00 +27°C° 0 mm 3 m/s 756 mmHg 51%
    14:00 +28°C° 0 mm 3 m/s 756 mmHg 51%
    15:00 +28°C° 0 mm 3 m/s 756 mmHg 50%
    16:00 +28°C° 0 mm 3 m/s 755 mmHg 50%
    17:00 +27°C° 0 mm 3 m/s 755 mmHg 54%
    18:00 +26°C° 0 mm 3 m/s 755 mmHg 57%
    19:00 +24°C° 0 mm 3 m/s 754 mmHg 61%
    20:00 +24°C° 0 mm 3 m/s 754 mmHg 61%
    21:00 +22°C° 0 mm 3 m/s 754 mmHg 61%
    22:00 +22°C° 0 mm 4 m/s 754 mmHg 61%
    23:00 +21°C° 0 mm 4 m/s 754 mmHg 62%

    24 Agosto, Sexta-feira

    Tempo Temperatura Precipitação Vento Pressão Humidade
    00:00 +21°C° 0 mm 4 m/s 753 mmHg 63%
    01:00 +21°C° 0 mm 4 m/s 753 mmHg 63%
    02:00 +21°C° 0 mm 4 m/s 753 mmHg 65%
    03:00 +21°C° 0 mm 4 m/s 752 mmHg 68%
    04:00 +20°C° 0 mm 4 m/s 752 mmHg 70%
    05:00 +21°C° 0,1 mm 4 m/s 752 mmHg 71%
    06:00 +21°C° 0,1 mm 5 m/s 752 mmHg 73%
    07:00 +22°C° 0,1 mm 5 m/s 751 mmHg 74%
    08:00 +25°C° 0,2 mm 5 m/s 751 mmHg 71%
    09:00 +26°C° 0,2 mm 5 m/s 751 mmHg 68%
    10:00 +28°C° 0,2 mm 5 m/s 751 mmHg 64%
    11:00 +29°C° 0 mm 5 m/s 750 mmHg 60%
    12:00 +30°C° 0 mm 5 m/s 750 mmHg 55%
    13:00 +32°C° 0 mm 5 m/s 750 mmHg 50%
    14:00 +32°C° 0,2 mm 5 m/s 750 mmHg 50%
    15:00 +32°C° 0,2 mm 4 m/s 749 mmHg 50%
    16:00 +31°C° 0,2 mm 3 m/s 749 mmHg 51%
    17:00 +30°C° 0 mm 3 m/s 749 mmHg 54%
    18:00 +28°C° 0 mm 3 m/s 749 mmHg 57%
    19:00 +27°C° 0 mm 2 m/s 749 mmHg 61%
    20:00 +26°C° 0,5 mm 2 m/s 749 mmHg 65%
    21:00 +25°C° 0,5 mm 2 m/s 749 mmHg 70%
    22:00 +24°C° 0,5 mm 3 m/s 749 mmHg 75%
    23:00 +22°C° 0,5 mm 3 m/s 749 mmHg 79%

    25 Agosto, Sábado

    Tempo Temperatura Precipitação Vento Pressão Humidade
    00:00 +21°C° 0,5 mm 3 m/s 749 mmHg 84%
    01:00 +21°C° 0,5 mm 4 m/s 749 mmHg 88%
    02:00 +20°C° 1,1 mm 4 m/s 749 mmHg 90%
    03:00 +20°C° 1,1 mm 4 m/s 749 mmHg 92%
    04:00 +19°C° 1,1 mm 4 m/s 749 mmHg 94%
    05:00 +19°C° 0,3 mm 4 m/s 750 mmHg 92%
    06:00 +19°C° 0,3 mm 4 m/s 750 mmHg 90%
    07:00 +19°C° 0,3 mm 5 m/s 750 mmHg 88%
    08:00 +19°C° 0,3 mm 5 m/s 751 mmHg 86%
    09:00 +19°C° 0,3 mm 5 m/s 751 mmHg 84%
    10:00 +19°C° 0,3 mm 5 m/s 751 mmHg 82%
    11:00 +19°C° 0,3 mm 5 m/s 752 mmHg 82%
    12:00 +17°C° 0,3 mm 5 m/s 752 mmHg 83%
    13:00 +17°C° 0,3 mm 5 m/s 752 mmHg 83%
    14:00 +17°C° 0,1 mm 5 m/s 752 mmHg 84%
    15:00 +16°C° 0,1 mm 6 m/s 752 mmHg 84%
    16:00 +16°C° 0,1 mm 6 m/s 752 mmHg 84%
    17:00 +16°C° 0,1 mm 5 m/s 753 mmHg 84%
    18:00 +15°C° 0,1 mm 5 m/s 753 mmHg 83%
    19:00 +15°C° 0,1 mm 4 m/s 753 mmHg 83%
    20:00 +15°C° 0 mm 4 m/s 753 mmHg 82%
    21:00 +16°C° 0 mm 3 m/s 753 mmHg 81%
    22:00 +14°C° 0 mm 3 m/s 753 mmHg 81%
    23:00 +14°C° 0 mm 3 m/s 754 mmHg 81%
    Mostrar mais